Weather Roundup
Issued by NWS

Home | Current Version | Previous Version | Graphics & Text | Print | Product List | Glossary Off
Versions: 1 2 3 4 5 6 7 8 9 10 11 12 13 14 15 16 17 18 19 20 21 22 23 24 25 26 27 28 29 30 31 32 33 34 35 36 37 38 39 40 41 42 43 44 45 46 47 48 49 50

000
NZUS93 KARX 210159
HRRWXR

CURRENT HOURLY OBSERVATIONS ACROSS
MUCH OF THE UPPER MISSISSIPPI VALLEY
NATIONAL WEATHER SERVICE LA CROSSE WI
900 PM CDT SUN APR 20 2014


...SOUTHEAST MINNESOTA...


CITY           SKY/WX    TMP DP  RH WIND       PRES   REMARKS
ROCHESTER      PTCLDY    60  55  83 E6        29.97R
ROCHESTER/MAYO FAIR      63  55  77 NE5       29.96S
WINONA           N/A    N/A N/A N/A MISG        N/A
AUSTIN         MOCLDY    61  55  82 E6        29.94S
ALBERT LEA     MOCLDY    61  55  82 E6        29.93F
DODGE CENTER   PTCLDY    63  57  82 E5        29.96R
PRESTON        MOCLDY    60  55  83 E5        29.98R
OWATONNA       PTCLDY    63  55  77 E6        29.94S
FARIBAULT      PTCLDY    66  52  59 E3        29.95S
$$

...ELSEWHERE IN MINNESOTA...


CITY           SKY/WX    TMP DP  RH WIND       PRES   REMARKS
MINNEAPOLIS    PTCLDY    65  53  65 SE7       29.95R
INTNL FALLS    MOCLDY    45  33  63 E6        29.93F
DULUTH         PTCLDY    54  30  40 SE5       29.98S
RED WING       CLEAR     61  54  77 E5        29.96R
REDWOOD FALLS  PTCLDY    68  48  48 E6        29.91R
MANKATO        PTCLDY    64  54  68 E9        29.93R
WORTHINGTON    CLOUDY    70  50  49 S10       29.92R
FAIRMONT       MOCLDY    66  54  63 E10       29.91F
$$

...SOUTHWEST WISCONSIN...


CITY           SKY/WX    TMP DP  RH WIND       PRES   REMARKS
LA CROSSE      CLOUDY    56  53  90 N5        29.97R FOG
PRAIRIE DU CHI MOCLDY    56  55  94 SE3       29.95S FOG
BOSCOBEL       CLOUDY    58  55  90 CALM      29.95F FOG
LONE ROCK      NOT AVBL
PLATTEVILLE    MOCLDY    67  46  46 S9        29.98S
FORT MC COY    NOT AVBL
CAMP DOUGLAS   FOG       54  54 100 E5        29.99S VSB 1/2
VIROQUA        FAIR      57  57 100 E9        29.97S
WIS DELLS      CLOUDY    56  53  89 CALM      30.00R
$$

...ELSEWHERE IN WISCONSIN...


CITY           SKY/WX    TMP DP  RH WIND       PRES   REMARKS
MILWAUKEE      MOCLDY    63  38  39 S9        30.01F
MADISON        CLOUDY    63  50  62 CALM      29.99R
GREEN BAY      CLOUDY    53  52  96 CALM      30.02S FOG
EAU CLAIRE     MOCLDY    60  54  80 S3        29.97R
BLACK RVR FLS  CLOUDY    55  55 100 CALM      29.99R FOG
MEDFORD        CLOUDY    55  53  94 CALM      30.00S
WAUSAU         CLOUDY    57  53  86 SE3       29.99S
WIS RAPIDS     MOCLDY    53  51  93 CALM      30.02R
MARSHFIELD     CLOUDY    56  53  90 CALM      30.00R
RICE LAKE      CLEAR     66  47  50 CALM      29.99R
$$

...NORTHEAST IOWA...


CITY           SKY/WX    TMP DP  RH WIND       PRES   REMARKS
WATERLOO       PTCLDY    71  49  45 MISG      29.92R
DUBUQUE        PTCLDY    65  46  50 S12       29.97S
DECORAH        LGT RAIN  57  57 100 MISG      29.98R
MASON CITY     CLOUDY    62  56  80 SE12      29.91F
CHARLES CITY   LGT RAIN  61  54  77 N10G21    29.97R
OELWEIN        PTCLDY   N/A N/A N/A S9        29.94S
$$

...ELSEWHERE IN IOWA...


CITY           SKY/WX    TMP DP  RH WIND       PRES   REMARKS
DES MOINES     MOCLDY    71  52  50 S8        29.95R
IOWA CITY      CLOUDY    68  49  50 S5        29.98S
FORT DODGE     CLOUDY    70  57  64 N5        29.90S
MARSHALLTOWN   MOCLDY    69  51  52 S13       29.93R
CEDAR RAPIDS   CLOUDY    66  48  52 S9        29.95S
$$

...NORTHERN ILLINOIS...


CITY           SKY/WX    TMP DP  RH WIND       PRES   REMARKS
CHICAGO-OHARE  MOCLDY    64  40  41 S9        30.04S
DUPAGE         PTCLDY    63  42  46 SE6       30.03S
CHICAGO-MIDWAY MOCLDY    72  40  31 SE7       30.05S
MOLINE         MOCLDY    72  45  37 S8        29.98S
ROCKFORD       MOCLDY    67  42  40 S9        30.02S
STERLING       PTCLDY    68  43  40 S5        30.00S
PEORIA         MOCLDY    70  41  34 S10       30.03S
$$

NOTE: "FAIR" INDICATES FEW OR NO CLOUDS BELOW 12,000 FEET WITH NO
SIGNIFICANT WEATHER AND/OR OBSTRUCTIONS TO VISIBILITY. WIND
SPEEDS ARE IN MILES-PER-HOUR.



USA.gov is the U.S. government's official web portal to all federal, state and local government web resources and services.